Location: Newark
(21.1200°N, 73.4000°E)
Time: 14:14:10
(UTC+00:00)

Courier 1B Rocket - Pass Details

Date: 21 January 2020
Orbit: 920 x 1202 km, 28.2° (Epoch: 22 February)

Event Time Altitude Azimuth Distance (km) Brightness Sun altitude
Rises 11:23:58 0° 289° (WNW) 3,637 8.6 17.1°
Reaches altitude 10° 11:26:45 10° 294° (WNW) 2,660 7.9 16.5°
Maximum altitude 11:32:54 50° 9° (N) 1,160 5.4 15.3°
Drops below altitude 10° 11:38:55 10° 84° (E) 2,603 6.7 14.1°
Sets 11:41:37 0° 90° (E) 3,552 7.4 13.5°
